Atlantic - Newfoundland: Past 24 Hour Conditions

 

Port aux Basques

02:30 AM NST 08 February 2016
Disclaimer

This table is a summary of hourly weather conditions for the past 24 hours.
Please note that these observations might not always be representative of weather conditions over their associated marine area.

Date / Time
(NST)
Wind(knots) Conditions Visibility(km) Pressure(kPa) Air tempC) Relative humidity(%) Dew pointC) Wind Chill
08 February 2016
2:30 NW 28 gust 35 N/A 15 102.0 -6 64 -11 -16
1:30 NW 34 gust 42 Light Snow 13 101.9 -5 75 -9 -16
0:30 WNW 35 gust 43 N/A 15 101.9 -6 67 -11 -17
07 February 2016
23:30 WNW 41 gust 50 N/A 15 101.8 -6 62 -12 -19
22:30 WNW 44 gust 54 N/A 4 101.7 -6 65 -12 -18
21:30 WNW 41 gust 49 N/A 13 101.7 -6 58 -13 -18
20:30 WNW 39 gust 49 N/A 13 101.7 -6 59 -12 -17
19:30 WNW 40 gust 46 N/A 15 101.6 -6 66 -11 -17
18:30 W 37 gust 52 N/A 6 101.4 -4 70 -9 -15
17:30 WNW 35 gust 45 Light Snow 0.3 101.3 -3 98 -4 -14
16:30 SW 24 N/A 11 101.2 0 95 0 *
15:30 SW 29 gust 35 Light Precipitation 3 101.1 0 98 0 -8
14:30 SW 27 gust 37 Light Snow 0.8 101.2 0 96 -1 -8
13:30 SSW 26 gust 34 N/A 15 101.3 1 82 -2 *
12:30 SSW 23 gust 32 N/A 15 101.5 0 83 -3 *
11:30 SSW 21 gust 26 N/A 15 101.6 0 85 -3 -8
10:30 SSW 19 gust 26 Light Snow 2 101.7 -1 96 -2 -8
9:30 S 20 gust 27 Light Snow 1 101.8 -2 92 -3 -9
8:30 S 15 N/A 15 101.9 -2 74 -6 -9
7:30 S 13 N/A 15 101.9 -3 72 -7 -9
6:30 SSW 12 N/A 15 102.0 -3 72 -7 -9
5:30 WSW 12 N/A 15 102.0 -3 67 -9 -10
4:30 WSW 14 N/A 15 102.1 -3 73 -8 -10
3:30 WSW 18 N/A 15 102.1 -4 74 -8 -12
2:30 W 19 N/A 15 102.1 -3 70 -8 -12

Zoom-in to make a selection

Map of Atlantic - Newfoundland marine weather areas Southwestern Grand Banks - 44138 Banquereau - 44139 Tail of the Bank - 44140 Nickerson Bank - 44251 Northeast Burgeo Bank - 44255 Blanc-Sablon Airport Cap Whittle Chevery Natashquan Airport Heath Point Miscou Island Grand Étang Ingonish Beach North Mountain St.Paul Island J.A. Douglas McCurdy Sydney Airport Charlottetown Airport East Point North Cape Argentia Bonavista Burgeo Cape Race Corner Brook Daniel's Harbour Englee Ferolle Point La Scie Port aux Basques Rocky Harbour Sagona Island St. Anthony Airport St. John's Int'l Airport St. Lawrence Stephenville Airport Twillingate Winterland Wreckhouse Cartwright Airport Mary's Harbour Grates Cove Pool's Island Marticot Island Long Pond Eskasoni (First Nations) Îles de la Madeleine Airport
Legend:
buoy Buoy
land station Land Station

Atlantic - Newfoundland Area

Another Region

What we are doing

Date modified: